Retour au catalogue

CONNECTA IOT-10

ActifCommunicationsSSO
NORAD 64555·PAYLOAD·🇹🇷 Turkey

Lancé Jun 23, 2025 depuis Vandenberg Space Force Base

Loading…

Prochains Passages (prochaines 24 heures)

TLE

FraisSource: Space-Track

Époque: Sep 14, 2026, 18:46 UTC

1 64555U 25135AD  26257.78203251  .00006343  00000-0  28852-3 0  9995
2 64555  97.4762  12.0303 0001632  57.1392 303.0001 15.21073952 68477

Suivez CONNECTA IOT-10 en temps réel avec AllMySat

Download on the App Store